Regional Weather Roundup
Issued by NWS

Home | Current Version | Previous Version | Text Only | Print | Product List | Glossary Off
Versions: 1 2 3 4 5 6 7 8 9 10 11 12 13 14 15 16 17 18 19 20 21 22 23 24 25 26 27 28 29 30 31 32 33 34 35 36 37 38 39 40 41 42 43 44 45 46 47 48 49 50

000
ASUS43 KMKX 272311
RWRWI

WISCONSIN REGIONAL WEATHER ROUNDUP
NATIONAL WEATHER SERVICE MILWAUKEE/SULLIVAN WI
600 PM CDT MON JUL 27 2015

NOTE: "FAIR" INDICATES FEW OR NO CLOUDS BELOW 12,000 FEET WITH NO
SIGNIFICANT WEATHER AND/OR OBSTRUCTIONS TO VISIBILITY.

WIZ001-002-006>008-014>016-023>028-280000-
NORTHWEST WISCONSIN

CITY           SKY/WX    TMP DP  RH WIND       PRES   REMARKS
SUPERIOR ARPT  SUNNY     79  69  71 NE8       29.91S HX  81
ASHLAND        SUNNY     87  57  35 S5        29.94F HX  86
HAYWARD        SUNNY     85  61  44 S12       29.97S HX  85
SIREN          MOSUNNY   84  66  53 S12       29.93F HX  86
CUMBERLAND     MOSUNNY   81  64  57 SE9       29.96S HX  82
RICE LAKE      MOSUNNY   82  65  56 SE13      29.97F HX  84
CHETEK         MOSUNNY   83  67  57 SE8       29.96S HX  86
LADYSMITH      MOSUNNY   84  62  46 SE8       30.00S HX  85
EAU CLAIRE     PTSUNNY   83  65  54 SE12      29.94F HX  85
MENOMONIE      PTSUNNY   84  68  58 SE9       29.95S HX  87
NEW RICHMOND   MOSUNNY   82  67  62 SE8       29.94S HX  84
OSCEOLA        PTSUNNY   83  70  64 SE13      29.95S HX  87
$$

WIZ003>005-009-010-017-018-280000-
NORTH CENTRAL WISCONSIN

CITY           SKY/WX    TMP DP  RH WIND       PRES   REMARKS
MANITOWISH WTR SUNNY     84  58  40 SE9       30.00F HX  84
ARBOR VITAE    SUNNY     84  57  40 SE10      30.01F HX  83
WOODRUFF       SUNNY     84  57  40 SE10      30.01F HX  83
RHINELANDER    SUNNY     85  59  41 S8        30.03F HX  84
EAGLE RIVER    SUNNY     84  51  31 S6        30.02S HX  82
LAND O LAKES   SUNNY     87  53  31 S5        30.03R HX  84
PHILLIPS       MOSUNNY   82  60  47 S8        30.00R HX  82
TOMAHAWK       SUNNY     85  59  41 SE5       30.01S HX  84
MEDFORD        SUNNY     79  66  64 SE5       30.01S HX  81
MERRILL        NOT AVBL
$$

WIZ029-030-035-036-043>047-280000-
CENTRAL WISCONSIN

CITY           SKY/WX    TMP DP  RH WIND       PRES   REMARKS
WAUSAU         SUNNY     85  61  44 SE12G17   29.99F HX  85
MOSINEE        SUNNY     82  64  54 SE5       30.01  HX  84
MARSHFIELD     MOSUNNY   85  63  47 SE6       30.00R HX  86
STEVENS POINT  MOSUNNY   82  61  48 SE8       30.00F HX  83
WAUPACA        MOSUNNY   88  62  41 SE8       30.00S HX  88
WAUTOMA        MOSUNNY   87  62  42 SE9       30.00S HX  87
WISC RAPIDS    MOSUNNY   86  58  38 SE12      29.99F HX  85
CAMP DOUGLAS   PTSUNNY   86  66  51 SE8       29.97F HX  88
$$

WIZ011>013-019>022-031-037>040-048>050-280000-
NORTHEAST WISCONSIN

CITY           SKY/WX    TMP DP  RH WIND       PRES   REMARKS
ANTIGO         SUNNY     80  61  52 S9        30.04S HX  81
SHAWANO        SUNNY     87  61  42 SE3       30.00F HX  87
OCONTO         SUNNY     86  63  46 SE8       30.00S HX  86
STURGEON BAY   SUNNY     84  61  45 S9        30.03F HX  84
GREEN BAY      SUNNY     85  64  49 SE10      30.00F HX  86
MANITOWOC      MOSUNNY   83  60  45 MISG      30.02S HX  83
APPLETON       MOSUNNY  N/A N/A N/A S8        30.01F
CLINTONVILLE   MOSUNNY   86  61  42 SE7       30.00F HX  86
OSHKOSH        PTSUNNY   85  62  46 SE8       30.00S HX  85
$$

WIZ032>034-041-042-053>061-280000-
SOUTHWEST WISCONSIN

CITY           SKY/WX    TMP DP  RH WIND       PRES   REMARKS
LA CROSSE      PTSUNNY   85  69  58 SE12      29.93F HX  89
SPARTA         MOSUNNY   84  63  48 S8        29.96F HX  85
VIROQUA        PTSUNNY   84  68  59 SE8       29.98F HX  87
BOSCOBEL       PTSUNNY   86  68  54 S6        29.95F HX  89
PRAIRIE DU CHI PTSUNNY   84  66  53 SE6       29.94F HX  86
PLATTEVILLE    CLOUDY    83  70  64 S6        29.98S HX  86
$$

WIZ056-057-062-063-064-067-068-280000-
SOUTH CENTRAL WISCONSIN

CITY           SKY/WX    TMP DP  RH WIND       PRES   REMARKS
REEDSBURG      MOSUNNY   85  69  57 SE6       29.97S HX  89
BARABOO/DELLS  MOSUNNY   85  64  49 SE9       29.98F HX  86
LONE ROCK      PTSUNNY   84  68  58 SE7       29.97S HX  87
MINERAL POINT  PTSUNNY   84  68  58 S5        29.98F HX  87
MADISON        PTSUNNY   84  63  49 SE13      29.98S HX  85
MIDDLETON      MOSUNNY   84  64  50 E10       29.99F HX  85
WATERTOWN      MOSUNNY   83  64  53 E5        29.99F HX  84
MONROE         PTSUNNY   82  70  65 E3        29.99S HX  86
JANESVILLE     SUNNY     86  64  48 E9        29.98S HX  87
$$

WIZ051-052-058>065-066-070>072-280000-
SOUTHEAST WISCONSIN

CITY           SKY/WX    TMP DP  RH WIND       PRES   REMARKS
MILWAUKEE      PTSUNNY   81  62  52 E6        30.00F HX  82
WAUKESHA       SUNNY     81  57  44 SE14      30.02S HX  81
MILWAUKEE/TIMM SUNNY     82  55  39 SE7       30.01F HX  82
RACINE         SUNNY     82  63  52 NE5       30.02F HX  83
BURLINGTON     MOSUNNY   82  59  45 E9        30.00F HX  82
KENOSHA        MOSUNNY   81  65  58 E7        30.01S HX  83
FOND DU LAC    PTSUNNY   84  62  47 SE9       30.00F HX  85
SHEBOYGAN      MOSUNNY   82  63  52 S8        30.02S HX  83
WEST BEND      PTSUNNY   82  59  44 CALM      30.02F HX  82
JUNEAU           N/A     83  62  48 SE6       30.02S HX  83
$$

LSZ147-162-280000-
LAKE SUPERIOR

STATION/POSITION TIME  TEMP    WIND        PRES    WAVE
                       AIR SEA DIR/SP/G            HT/PER
                 (UTC) (F)     (DEG/KT/KT) (MB)    (FT/S)
W MID LAKE BUOY  2250   69 67   30/  6/  6 1013.9F   0
DEVILS ISLAND    2200   75      80/  7/  8 1013.9F
PORT WING        2200   79      40/ 10/ 13 1013.5F
SAXON HARBOR     2200   78                 1013.9
$$

LMZ867-665-643>646-280000-
LAKE MICHIGAN

STATION/POSITION TIME  TEMP    WIND        PRES    WAVE
                       AIR SEA DIR/SP/G            HT/PER
                 (UTC) (F)     (DEG/KT/KT) (MB)    (FT/S)
CHAMBERS ISLAND  2200   85     210/  3/  8 1015.6F
N MID LAKE BUOY  2250   73 71  220/  6/  6 1015.6F   0
NORTHPORT PIER   2200   85      60/  2/  4 1015.9F
SISTER BAY       2244   84     300/ 10/ 10   N/A
ALGOMA LAKESHORE 2212             CALM       N/A
KEWAUNEE LAKESHO 2200   74     160/  4/  4 1016.3F
SHEBOYGAN LAKESH 2300   76     130/  3/  3 1016.4F
PORT WASHINGTON  2200   80      40/  3/  4 1016.9F
ATWATER BUOY     2300   74      10/  2/  2 1017.6F
MILWAUKEE LAKESH 2200   74      40/  6/  7   N/A
KENOSHA   LAKESH 2200   76      30/  5/  6 1015.6F
$$

TC  - TEMPERATURE IN CELSIUS
VSB - VISIBILITY IN STATUTE MILES
WCI - WIND CHILL INDEX
HX  - HEAT INDEX




USA.gov is the U.S. government's official web portal to all federal, state and local government web resources and services.